Location: Brede
(50.9167°N, 0.6000°E)
Time: 01:00:48
(UTC+00:00)

Lacrosse 4 Rocket - Pass Details

Date: 08 August 2020
Orbit: 544 x 615 km, 68.0° (Epoch: 19 September)

Event Time Altitude Azimuth Distance (km) Brightness Sun altitude
Exits shadow 01:53:36 12° 278° (W) 1,793 3.7 -18.8°
Maximum altitude 01:56:27 20° 324° (NW) 1,332 3.5 -18.6°
Drops below altitude 10° 01:59:37 10° 13° (NNE) 1,867 5.2 -18.4°
Sets 02:02:18 0° 31° (NNE) 2,754 6.6 -18.2°
